Location: ????????
(55.6333°N, 37.7000°E)
Time: 11:06:28
(UTC+00:00)

Meteor 1-18 Rocket - Pass Details

Date: 19 May 2025
Orbit: 836 x 907 km, 81.2° (Epoch: 13 June)

Event Time Altitude Azimuth Distance (km) Brightness Sun altitude
Exits shadow 21:32:07 20° 195° (SSW) 1,925 5.5 -14.4°
Maximum altitude 21:36:17 86° 283° (WNW) 903 4.3 -14.4°
Drops below altitude 10° 21:42:13 10° 14° (NNE) 2,594 8.1 -14.3°
Sets 21:44:43 0° 15° (NNE) 3,544 9.2 -14.3°
